Location: Asheville, NC
(35.6000°N, 82.5500°W)
Time: 18:44:16
(UTC-05:00)

Vanguard 3 - Pass Details

Date: 16 February 2018
Orbit: 508 x 3264 km, 33.3° (Epoch: 17 February)

Event Time Altitude Azimuth Distance (km) Brightness Sun altitude
Rises 22:12:12 0° 271° (W) 3,014 10.7 -48.4°
Enters shadow 22:12:22 - 270° (W) 2,953 10.6 -48.4°
Reaches altitude 10° 22:14:23 10° 260° (W) 2,301 - -48.8°
Maximum altitude 22:19:06 31° 198° (SSW) 1,702 - -49.7°
Drops below altitude 10° 22:26:28 10° 140° (SE) 3,666 - -51.0°
Sets 22:30:58 0° 132° (SE) 5,164 - -51.8°
